Location: Austin
(30.3000°N, 97.7500°W)
Time: 05:52:59
(UTC-05:00)

NPP - Pass Details

Date: 16 June 2025
Orbit: 826 x 827 km, 98.8° (Epoch: 07 July)

Event Time Altitude Azimuth Distance (km) Brightness Sun altitude
Rises 02:58:23 0° 16° (NNE) 3,369 7.9 -32.5°
Reaches altitude 10° 03:00:45 10° 19° (NNE) 2,432 6.9 -32.2°
Enters shadow 03:05:04 54° 46° (NE) 993 4.2 -31.9°
